Wetbulb
76.27 75.78 75.81 73.21 65.89 65.56 58.48 60.76 64.30 63.64 63.76 67.82 67.86 65.36 64.56 66.16 63.99 60.25 72.87 73.90 74.08 74.05 75.77 76.88 78.23 78.15 77.69 77.58 77.30 77.09 77.03 76.92 76.97 76.89 76.72 76.47 76.45 76.37 76.44 76.17 76.32 77.32 76.73 77.00 77.23 77.23 77.41 77.30 77.39
76.27 75.95 74.20 71.74 62.43 56.55 56.76 63.43 62.04 65.11 67.03 68.49 68.21 66.55 66.37 64.72 69.89 70.14 71.45 73.69 73.36 74.13 75.11 75.96 77.66 78.07 77.59 77.48 77.27 77.52 77.63 76.97 76.88 76.52 76.63 76.64 76.51 76.61 76.51 76.58 76.54 77.39 76.50 76.78 77.20 76.97 77.14 77.39 77.19
76.69 76.78 70.82 66.21 61.05 55.13 56.90 63.10 64.90 65.44 67.45 67.10 65.97 69.09 66.79 64.18 68.99 70.43 72.90 74.58 73.45 74.05 75.43 77.13 77.59 77.46 77.21 77.46 77.71 77.47 77.52 77.03 76.67 76.20 76.44 75.74 75.94 76.89 76.90 76.87 76.98 77.47 77.10 76.81 77.05 76.95 77.04 77.37 77.41
73.79 73.44 71.79 61.17 57.78 61.32 62.87 65.37 66.59 64.46 65.45 67.09 67.80 64.25 67.96 70.25 69.56 71.94 73.14 74.69 73.61 73.79 75.60 76.89 77.28 76.72 77.11 77.87 77.30 77.46 76.62 76.87 77.06 77.04 76.63 76.55 75.64 76.50 76.94 76.95 77.47 77.37 77.15 77.41 77.20 77.22 77.32 77.36 77.10
73.94 72.12 63.92 61.02 59.25 62.90 65.05 66.30 66.39 65.87 66.24 66.53 68.05 65.29 65.08 69.72 71.55 72.69 71.80 72.76 73.22 73.64 76.09 76.99 77.96 77.24 77.33 77.51 77.23 77.14 77.14 77.10 76.98 76.96 77.24 77.06 76.65 77.04 77.45 77.37 77.42 77.59 77.40 77.31 77.57 77.44 77.22 77.27 77.35
69.88 70.13 60.36 57.34 59.95 63.31 65.50 66.88 66.07 66.19 67.77 67.23 66.84 65.64 64.89 69.25 70.47 70.52 70.88 71.95 72.92 72.90 74.04 76.66 77.20 77.58 77.19 77.36 77.51 76.42 76.99 77.22 76.83 76.92 77.14 77.02 77.10 77.47 77.70 77.67 77.54 77.57 77.23 77.26 77.42 77.44 77.02 77.14 77.11
67.72 66.35 60.12 59.80 60.34 62.46 64.63 67.90 64.55 65.52 66.19 66.74 68.85 65.52 66.49 69.20 70.26 68.80 69.59 71.04 72.54 72.37 73.75 75.84 76.79 76.21 76.76 76.70 76.86 77.09 76.79 76.92 77.17 76.38 77.06 77.01 77.05 77.45 77.50 77.34 77.60 77.46 77.29 77.15 77.06 76.95 76.68 76.52 77.12
69.57 67.91 60.64 60.77 59.36 61.29 66.29 66.58 67.64 65.84 65.87 70.06 70.45 65.93 64.95 69.81 71.45 68.20 70.68 70.28 71.70 71.85 73.03 75.14 76.84 75.30 75.61 75.68 76.23 76.65 76.53 76.59 76.95 77.20 77.00 76.93 77.26 77.51 77.62 78.03 77.93 77.00 77.29 77.04 76.84 76.56 76.56 76.91 76.77
70.33 61.57 60.01 59.95 60.53 63.12 67.31 65.58 68.49 70.21 68.06 68.81 69.19 69.16 70.45 71.52 70.27 66.98 66.63 67.23 70.47 71.49 72.24 74.22 75.14 75.18 75.19 75.36 76.93 76.28 75.87 76.67 76.54 76.90 76.79 76.98 77.86 77.49 77.13 77.00 77.65 76.81 76.81 76.34 76.12 75.78 75.76 76.55 75.78
67.58 61.54 62.47 65.83 66.48 65.03 66.42 66.64 67.89 67.12 66.80 67.30 68.15 71.31 71.31 70.71 69.15 65.64 66.73 67.14 69.62 69.61 70.68 71.71 75.14 74.58 74.27 74.92 76.48 77.91 76.14 75.78 76.68 78.03 77.68 77.09 77.60 78.17 76.37 77.45 76.95 76.87 76.02 75.84 75.44 75.05 75.50 76.36 74.34
66.49 62.61 65.46 66.26 67.49 67.94 66.31 66.57 68.77 66.55 64.00 66.50 66.84 68.67 70.49 69.86 67.02 67.67 67.00 67.71 68.00 70.71 71.73 70.77 74.97 74.65 74.98 75.72 75.34 75.39 74.95 75.37 75.94 76.72 77.95 76.91 76.89 75.76 76.39 76.47 77.49 76.54 75.69 75.32 75.50 75.09 74.64 75.48 73.97
64.27 65.76 66.19 66.68 67.90 67.26 66.20 67.70 66.09 67.64 68.68 70.34 70.23 70.52 70.21 69.48 67.88 65.85 67.00 67.83 68.68 69.46 70.41 70.63 73.49 75.96 76.05 76.22 74.75 75.78 74.31 76.06 74.90 76.31 77.68 76.26 75.00 76.64 76.88 77.42 76.74 78.31 76.40 74.69 75.84 75.08 74.95 73.93 76.70
63.91 65.57 66.59 67.20 67.01 67.81 68.06 66.42 67.11 67.52 69.13 70.35 71.25 70.70 69.50 69.07 68.57 67.86 67.43 69.28 69.95 70.50 68.38 71.17 73.33 75.71 76.10 76.55 75.20 75.64 75.83 74.93 74.67 76.26 76.67 76.34 74.64 77.85 76.39 75.22 75.55 75.15 73.07 75.75 75.32 75.31 76.12 75.81 75.51
65.03 65.30 65.19 67.18 66.89 67.23 66.55 67.20 68.36 68.08 69.50 69.87 69.88 68.86 68.72 68.35 68.79 68.37 68.25 65.08 68.28 70.48 71.28 71.02 72.31 74.33 75.39 75.44 76.35 75.77 75.16 75.77 74.92 75.59 76.65 77.39 77.04 76.87 76.88 74.30 75.27 76.25 76.02 75.66 75.43 75.25 75.30 73.15 75.53
65.21 62.14 63.65 65.45 66.70 66.13 68.04 65.09 65.47 68.59 69.67 68.72 67.83 67.76 67.99 68.29 69.95 68.88 67.79 66.98 69.44 69.16 71.30 71.59 72.00 73.74 75.40 74.89 76.23 75.73 75.25 75.12 76.51 75.50 76.98 77.54 79.00 77.76 75.58 74.39 75.65 75.03 76.88 76.00 76.25 75.49 76.76 75.57 74.95
61.07 61.44 57.86 62.19 65.69 66.34 66.88 62.03 66.65 68.92 68.37 67.73 68.26 67.15 67.16 68.65 68.30 68.28 67.82 66.83 69.60 69.45 70.68 72.21 72.11 73.44 74.53 74.56 75.95 75.73 75.62 76.48 77.64 76.75 77.17 78.29 78.05 77.98 75.08 73.11 74.97 74.41 75.57 75.29 74.90 74.42 73.77 73.90 74.78
57.43 53.80 54.95 60.04 65.15 64.66 65.41 63.54 67.16 69.23 68.08 67.33 67.59 68.18 67.78 67.91 68.49 70.01 68.97 69.41 70.28 70.41 71.07 71.89 72.91 73.06 73.69 76.63 76.18 76.30 77.33 77.58 77.68 77.86 78.31 78.60 78.19 78.69 78.77 75.02 72.23 74.07 74.97 74.52 75.70 73.19 74.29 73.86 74.51
52.78 53.26 54.23 55.85 62.13 63.65 62.60 64.18 66.87 68.32 67.94 67.03 67.51 68.23 67.85 67.60 68.58 70.91 71.27 70.78 69.72 69.82 70.94 72.35 72.90 75.11 74.56 76.35 76.72 75.61 76.03 76.69 77.62 77.41 77.20 77.17 78.48 78.60 79.54 77.79 74.22 73.95 72.51 75.05 74.88 75.14 73.46 73.36 74.75
55.13 54.12 53.54 55.99 60.72 61.32 62.11 64.14 65.76 67.61 67.93 66.89 67.64 68.00 69.02 69.55 71.62 71.70 71.11 71.30 70.05 70.69 71.40 71.66 72.30 73.68 76.37 74.02 73.68 73.47 73.60 75.25 76.14 76.48 78.60 78.27 78.83 78.95 78.52 76.09 78.18 77.03 76.35 73.51 74.40 76.36 75.29 73.84 74.34
55.17 53.95 54.65 59.88 62.14 61.60 60.52 62.78 65.94 66.82 67.30 68.03 67.62 68.40 68.71 69.50 70.49 71.41 72.44 71.87 69.87 69.55 71.22 71.73 72.56 75.14 75.37 74.86 74.88 75.05 75.91 75.35 75.76 76.52 78.06 78.92 78.88 78.91 77.94 78.02 78.35 76.66 78.13 73.42 75.22 76.89 75.63 73.20 74.20
54.99 53.22 52.71 52.92 56.91 61.33 62.20 60.45 62.82 66.07 67.63 68.46 68.58 69.02 69.21 69.23 69.10 70.17 70.73 71.17 70.76 70.41 71.59 71.84 74.00 75.16 76.89 77.52 76.55 76.60 76.90 77.48 75.98 76.02 76.36 77.40 78.83 78.81 79.00 78.33 77.99 76.68 75.51 73.42 74.99 76.79 75.35 75.27 76.13
52.37 55.09 54.00 54.66 54.82 53.51 59.42 51.42 61.76 64.20 64.13 65.91 67.73 68.10 68.46 69.32 70.20 70.12 70.09 70.06 69.77 70.69 72.18 72.78 74.05 75.20 76.30 78.32 77.84 79.44 75.48 74.17 75.20 75.98 76.20 76.19 77.82 78.19 79.02 79.50 78.08 78.55 75.92 73.26 77.83 78.13 76.47 76.16 74.60
53.32 55.61 55.82 55.81 55.12 54.72 55.29 55.52 60.01 64.13 63.12 64.91 66.89 68.41 68.70 69.77 70.26 70.37 70.35 70.83 71.01 71.46 71.45 72.72 74.96 76.81 77.62 78.54 79.37 76.94 76.96 76.36 76.03 76.43 79.13 79.79 79.14 78.51 78.02 79.08 78.44 77.71 76.69 77.39 76.18 77.50 77.60 78.34 76.46
56.45 55.49 56.40 56.59 55.41 50.75 53.59 55.26 51.09 61.32 63.76 65.63 67.13 68.26 69.18 69.68 70.32 71.03 71.96 72.30 71.76 72.13 72.27 72.78 74.44 77.24 78.23 77.62 77.90 78.22 78.84 77.57 76.47 77.07 75.87 76.55 77.43 77.62 79.37 78.16 79.46 78.73 77.63 77.55 75.63 74.49 77.54 77.60 76.65
55.71 53.90 49.69 49.58 49.78 48.03 54.88 55.57 56.93 60.80 64.59 66.31 66.79 67.85 69.01 70.04 70.47 70.86 71.27 71.68 72.32 72.43 72.77 73.23 75.23 76.76 77.97 77.04 77.69 77.91 78.47 79.12 78.58 77.66 75.76 77.84 75.49 75.78 78.64 79.21 79.61 77.36 78.52 77.61 76.45 75.08 76.19 76.62 74.98
55.43 54.67 50.29 47.10 48.50 50.08 55.06 51.61 55.87 62.63 65.12 66.17 67.70 68.57 69.03 69.19 70.02 70.59 71.54 71.98 72.29 72.85 73.15 74.05 75.63 76.95 75.49 77.06 78.06 79.15 79.57 76.76 76.37 77.07 75.76 75.76 74.92 75.80 80.29 79.02 78.21 78.99 78.70 77.94 76.68 74.98 73.78 75.35 76.11
55.87 53.45 56.60 51.70 53.09 51.22 52.77 57.06 61.67 63.10 63.43 65.00 65.84 67.09 67.32 68.42 68.40 69.23 70.44 71.86 72.70 73.03 73.22 74.29 76.47 77.56 77.20 75.56 77.99 78.26 78.62 78.16 77.34 80.21 78.08 76.14 77.75 75.69 78.78 78.46 77.97 78.39 78.70 77.71 77.05 75.04 74.84 75.57 75.57
56.55 57.86 52.15 52.77 47.80 47.25 51.36 51.57 56.37 59.87 62.09 64.75 65.22 65.21 66.60 67.81 68.55 68.53 69.90 71.48 72.83 73.44 73.88 73.97 74.56 75.24 75.85 74.57 75.15 75.60 75.78 77.17 77.36 77.11 78.13 78.42 78.98 80.48 80.60 79.21 78.03 78.22 78.48 78.16 77.71 75.60 74.54 74.13 75.64
55.71 54.39 54.51 54.55 52.86 48.79 48.39 50.44 58.71 61.63 63.70 63.66 64.39 64.37 66.11 68.25 69.74 71.05 72.32 73.31 73.46 73.81 73.77 73.55 73.50 73.42 73.31 73.61 74.46 74.69 74.57 74.92 76.49 75.92 77.54 78.15 78.42 80.34 81.42 81.04 79.13 78.48 78.00 78.21 77.46 77.50 76.78 75.70 75.60
56.20 55.07 55.72 51.90 50.63 53.90 52.03 54.14 59.21 58.35 64.15 64.89 65.79 66.95 68.59 70.19 70.90 72.32 72.68 73.14 73.04 73.32 73.50 73.39 73.64 73.89 74.07 74.68 75.20 74.18 74.09 76.28 75.65 76.54 77.10 77.95 78.67 80.29 81.01 80.96 79.64 78.77 79.01 79.36 77.64 76.01 76.04 75.28 75.38
MSLP
1009.23 1009.01 1008.72 1008.22 1007.62 1004.48 1004.25 1004.13 1004.45 1004.78 1004.87 1004.82 1005.32 1005.57 1006.89 1007.12 1008.05 1009.79 1010.53 1011.09 1011.44 1012.57 1013.70 1014.30 1014.82 1015.02 1015.27 1015.35 1015.65 1015.92 1016.02 1016.13 1016.16 1016.26 1016.33 1016.48 1016.62 1016.73 1016.85 1016.96 1016.98 1016.88 1017.02 1017.16 1017.31 1017.46 1017.55 1017.67 1017.76
1008.20 1008.04 1008.26 1007.25 1006.32 1004.76 1004.51 1004.23 1004.97 1005.34 1005.42 1005.74 1006.31 1006.36 1006.90 1008.77 1009.11 1010.14 1010.78 1011.07 1011.53 1012.34 1013.30 1014.37 1015.10 1015.27 1015.50 1015.61 1015.79 1015.96 1016.08 1016.24 1016.28 1016.41 1016.42 1016.46 1016.63 1016.79 1016.97 1017.14 1017.10 1017.13 1017.38 1017.53 1017.59 1017.73 1017.83 1017.94 1018.16
1008.84 1008.18 1007.92 1005.70 1004.99 1004.48 1004.65 1004.53 1005.26 1006.29 1006.24 1006.38 1007.09 1007.53 1008.89 1010.59 1010.54 1010.87 1010.65 1011.24 1011.44 1012.20 1012.80 1014.79 1015.44 1015.62 1015.78 1015.83 1016.03 1016.12 1016.22 1016.33 1016.41 1016.60 1016.61 1016.60 1016.70 1016.83 1017.04 1017.34 1017.47 1017.44 1017.58 1017.92 1017.85 1018.01 1018.13 1018.26 1018.39
1007.98 1007.62 1006.77 1005.47 1003.94 1003.96 1003.52 1004.28 1005.48 1006.58 1007.13 1007.23 1006.95 1008.76 1010.52 1011.24 1011.03 1011.19 1011.11 1011.09 1011.40 1011.98 1012.74 1015.27 1015.64 1015.88 1016.02 1016.11 1016.29 1016.38 1016.48 1016.50 1016.59 1016.73 1016.74 1016.64 1016.71 1016.99 1017.34 1017.52 1017.61 1017.78 1017.87 1018.05 1018.29 1018.30 1018.52 1018.51 1018.73
1007.80 1005.86 1004.45 1002.98 1003.16 1003.01 1003.30 1004.32 1005.43 1005.14 1005.73 1006.70 1006.84 1008.66 1010.88 1011.91 1011.85 1011.27 1011.40 1011.11 1011.21 1011.67 1013.68 1015.21 1015.87 1016.04 1016.17 1016.35 1016.49 1016.62 1016.71 1016.79 1016.82 1017.01 1017.01 1017.04 1017.15 1017.21 1017.37 1017.69 1017.83 1017.90 1018.07 1018.17 1018.45 1018.56 1018.63 1018.81 1018.98
1006.56 1004.59 1003.78 1002.15 1002.37 1002.60 1002.92 1003.47 1003.86 1003.87 1004.60 1006.09 1006.80 1008.90 1011.52 1012.48 1012.09 1011.81 1011.60 1011.28 1011.32 1011.79 1013.47 1015.14 1016.07 1016.15 1016.38 1016.58 1016.71 1016.90 1017.04 1016.99 1017.09 1017.26 1017.29 1017.36 1017.36 1017.47 1017.54 1017.73 1017.95 1018.08 1018.32 1018.45 1018.56 1018.73 1018.88 1018.95 1019.17
1005.19 1003.45 1001.81 1001.43 1001.80 1002.04 1002.37 1002.79 1003.07 1003.41 1004.03 1004.78 1005.91 1007.88 1011.18 1012.38 1012.64 1012.55 1012.27 1012.23 1011.68 1012.16 1013.13 1014.60 1015.57 1016.22 1016.58 1016.80 1016.92 1017.06 1017.22 1017.26 1017.29 1017.50 1017.51 1017.55 1017.63 1017.68 1017.85 1017.95 1018.14 1018.28 1018.55 1018.68 1018.80 1018.86 1019.01 1019.08 1019.08
1004.62 1003.30 1002.03 1001.10 1001.02 1001.86 1002.29 1002.35 1002.86 1003.42 1003.59 1004.45 1005.11 1006.81 1009.75 1011.51 1012.62 1013.35 1013.18 1013.12 1012.52 1012.43 1013.17 1014.00 1015.31 1015.71 1015.97 1016.60 1017.12 1017.20 1017.41 1017.53 1017.54 1017.52 1017.68 1017.67 1017.73 1017.82 1017.88 1018.02 1018.20 1018.41 1018.60 1018.77 1018.91 1018.97 1018.95 1019.02 1019.10
1004.86 1004.67 1001.42 1000.86 1000.52 1001.50 1002.21 1001.98 1002.65 1003.31 1003.94 1004.55 1005.16 1005.56 1007.57 1011.05 1012.03 1012.98 1013.70 1014.15 1012.51 1012.69 1013.11 1013.26 1014.28 1015.64 1015.16 1015.75 1016.86 1017.29 1017.50 1017.58 1017.54 1017.51 1017.61 1017.58 1016.94 1017.40 1017.74 1018.15 1018.21 1018.55 1018.76 1018.88 1018.98 1018.93 1018.73 1018.42 1018.25
1002.84 1002.36 1001.07 1001.23 1000.84 1001.08 1001.70 1001.74 1002.76 1003.43 1004.00 1004.54 1005.33 1006.36 1008.41 1010.52 1011.16 1012.02 1012.78 1013.48 1013.37 1013.75 1014.23 1013.98 1013.61 1015.38 1015.08 1014.93 1016.44 1016.61 1016.71 1016.41 1017.06 1017.32 1017.07 1017.05 1017.23 1017.61 1017.55 1018.04 1018.43 1018.66 1018.81 1018.92 1018.95 1018.82 1018.36 1018.29 1018.65
1001.27 1001.30 1001.64 1001.61 1002.10 1002.00 1001.56 1001.52 1002.37 1002.52 1003.47 1004.48 1005.13 1007.04 1008.55 1010.14 1011.04 1011.61 1012.34 1013.15 1013.79 1014.16 1014.30 1014.02 1014.11 1015.21 1014.80 1015.17 1015.41 1016.01 1015.76 1016.03 1016.33 1017.08 1017.20 1016.93 1017.08 1016.97 1017.25 1018.24 1018.62 1018.27 1018.67 1018.33 1018.51 1018.56 1018.05 1017.41 1017.49
1000.49 1001.46 1001.53 1001.86 1002.19 1002.05 1001.76 1001.56 1001.92 1002.46 1003.66 1003.97 1005.14 1006.83 1008.44 1009.62 1010.51 1011.15 1011.66 1013.32 1013.40 1013.69 1014.45 1014.50 1014.44 1015.03 1015.04 1015.41 1015.47 1015.75 1016.01 1015.69 1016.37 1016.44 1017.32 1017.58 1017.25 1017.18 1017.30 1018.03 1018.60 1018.42 1017.57 1018.43 1018.11 1018.22 1018.34 1017.67 1017.33
1000.00 1000.58 1001.22 1001.73 1002.04 1001.98 1002.25 1002.17 1002.97 1003.84 1004.36 1004.62 1005.26 1006.68 1007.97 1008.82 1009.92 1010.77 1011.54 1013.05 1012.91 1013.20 1013.66 1013.68 1014.47 1015.08 1015.13 1015.49 1015.47 1015.56 1016.03 1015.84 1016.07 1016.31 1016.97 1017.09 1017.37 1017.01 1017.23 1018.47 1018.87 1018.98 1018.45 1017.59 1017.49 1017.70 1018.22 1017.67 1017.47
1000.05 1000.40 1000.46 1000.85 1001.55 1001.84 1002.05 1002.91 1003.14 1004.50 1004.64 1005.36 1005.97 1006.83 1007.91 1008.87 1009.72 1010.92 1012.08 1012.98 1013.60 1014.16 1012.97 1013.55 1014.64 1015.72 1015.78 1015.89 1016.06 1015.58 1015.94 1015.46 1015.79 1015.66 1016.52 1016.87 1017.16 1017.40 1017.98 1018.78 1018.97 1019.08 1018.94 1018.21 1017.23 1017.96 1017.87 1018.61 1017.84
1000.02 999.27 999.66 1000.46 1001.07 1001.34 1001.91 1002.78 1003.79 1004.79 1005.24 1005.74 1006.51 1007.69 1008.48 1009.08 1009.75 1011.10 1011.89 1012.72 1013.81 1014.46 1014.43 1013.98 1014.80 1014.90 1015.73 1016.48 1015.90 1015.96 1015.53 1015.58 1015.79 1016.27 1016.21 1016.60 1017.29 1017.82 1018.28 1018.83 1018.70 1018.81 1018.88 1018.42 1017.67 1018.20 1017.93 1017.83 1017.45
998.48 998.66 998.46 999.98 1000.59 1001.14 1001.54 1002.49 1004.09 1004.99 1005.38 1005.88 1006.84 1008.12 1008.98 1009.48 1010.03 1010.76 1011.50 1012.58 1013.74 1014.59 1015.15 1014.74 1014.04 1014.53 1015.54 1016.41 1016.45 1015.69 1015.38 1015.44 1015.97 1015.61 1016.16 1016.47 1017.06 1017.52 1018.26 1018.79 1019.03 1018.78 1018.26 1017.86 1017.89 1018.11 1017.89 1017.91 1017.81
997.38 997.45 998.00 999.21 1000.02 1000.40 1000.97 1002.28 1004.00 1004.84 1005.70 1006.52 1007.42 1008.02 1008.97 1009.92 1010.21 1011.13 1012.12 1012.80 1014.09 1014.91 1015.16 1014.84 1014.77 1014.94 1015.48 1015.46 1015.51 1015.48 1015.17 1015.62 1015.70 1016.15 1015.97 1016.08 1016.49 1016.89 1017.66 1018.34 1018.70 1019.00 1018.73 1018.30 1017.82 1018.41 1018.43 1018.17 1018.02
997.75 997.58 997.59 998.15 999.39 999.87 1000.45 1001.86 1003.59 1004.30 1005.24 1006.54 1007.57 1008.20 1008.79 1009.71 1009.92 1010.45 1011.53 1012.88 1013.80 1014.57 1014.86 1014.54 1014.63 1014.58 1015.11 1014.85 1015.29 1015.24 1015.19 1015.22 1015.38 1015.83 1015.79 1016.10 1016.25 1016.57 1017.04 1017.79 1018.56 1018.61 1018.94 1018.15 1017.85 1018.23 1018.33 1018.09 1017.99
997.38 997.12 997.07 998.25 999.28 999.21 999.57 1001.29 1003.05 1003.93 1004.66 1005.86 1006.74 1007.46 1007.85 1008.45 1008.98 1009.93 1010.84 1011.95 1012.75 1013.31 1013.59 1013.67 1014.45 1014.65 1014.55 1014.79 1014.99 1015.13 1014.99 1015.03 1014.72 1014.49 1014.92 1015.25 1015.74 1016.22 1016.67 1017.13 1017.48 1017.86 1018.20 1018.04 1018.37 1018.20 1018.12 1017.58 1017.88
996.94 996.60 996.41 997.89 998.80 999.38 999.79 1000.42 1002.36 1003.43 1003.84 1004.60 1005.27 1005.95 1006.34 1006.64 1007.46 1008.43 1009.34 1010.34 1011.20 1011.81 1012.35 1013.49 1014.33 1014.28 1014.57 1014.55 1014.77 1014.73 1014.88 1014.62 1014.51 1014.40 1014.60 1015.09 1015.29 1016.05 1015.93 1016.17 1016.82 1017.06 1017.72 1018.20 1018.31 1017.96 1017.98 1017.92 1018.01
995.96 995.99 996.74 997.10 997.23 997.85 999.15 1000.88 1002.35 1002.86 1003.16 1003.58 1004.13 1004.75 1005.26 1005.76 1006.52 1007.73 1008.57 1009.24 1010.03 1010.64 1011.30 1012.45 1013.13 1013.56 1013.93 1014.10 1014.21 1014.47 1014.59 1014.55 1014.39 1014.42 1014.66 1014.76 1015.22 1015.60 1015.66 1015.95 1015.98 1016.78 1017.32 1017.88 1017.94 1017.84 1017.79 1017.67 1017.86
995.81 996.68 996.74 996.53 996.28 995.73 996.99 1000.21 1001.96 1002.55 1002.67 1002.95 1003.21 1003.57 1004.06 1004.88 1005.77 1006.82 1007.77 1008.39 1009.10 1009.73 1010.59 1011.19 1012.11 1012.87 1013.35 1013.82 1013.76 1013.66 1013.66 1014.26 1013.74 1013.86 1013.71 1014.12 1014.64 1014.98 1015.27 1015.68 1015.75 1016.00 1016.75 1017.40 1017.41 1017.38 1017.56 1017.77 1017.81
996.42 996.77 996.56 996.19 995.66 995.44 995.96 997.70 999.33 1001.16 1001.32 1001.73 1001.97 1002.25 1002.92 1003.93 1004.80 1005.55 1006.59 1007.57 1008.26 1008.96 1009.62 1010.33 1011.23 1012.03 1012.76 1013.12 1013.62 1013.45 1013.82 1013.39 1013.36 1013.33 1013.53 1014.01 1014.11 1014.51 1014.62 1014.85 1015.09 1015.39 1015.83 1016.43 1016.96 1017.18 1017.36 1017.58 1017.53
996.73 996.33 995.64 995.21 994.78 994.54 995.26 997.79 1002.31 998.18 999.45 1000.12 1000.78 1001.24 1001.90 1002.63 1003.85 1004.63 1005.68 1006.59 1007.32 1007.96 1008.60 1009.33 1010.31 1011.29 1012.18 1012.81 1013.10 1013.40 1013.14 1013.49 1013.10 1012.95 1013.03 1013.40 1013.44 1013.70 1014.11 1014.49 1014.58 1014.96 1015.27 1016.10 1016.35 1016.81 1016.86 1017.13 1017.15
995.93 994.77 994.31 994.00 993.86 996.02 995.53 997.20 998.12 997.49 997.64 998.97 999.46 1000.13 1000.98 1001.79 1002.83 1003.78 1004.29 1005.01 1005.85 1006.51 1007.28 1008.20 1009.22 1010.40 1011.49 1012.15 1012.47 1012.84 1013.11 1013.27 1013.21 1013.27 1013.04 1012.92 1012.70 1012.55 1012.86 1014.03 1014.56 1014.84 1015.20 1015.50 1015.82 1016.65 1016.93 1016.72 1016.95
994.97 994.37 994.28 993.66 994.48 995.57 995.74 998.37 996.62 997.22 997.49 997.85 998.51 999.33 1000.11 1000.83 1001.34 1002.38 1003.32 1003.85 1004.38 1005.26 1006.18 1007.18 1008.19 1009.49 1010.70 1011.52 1011.82 1012.18 1012.65 1012.82 1012.82 1012.88 1012.68 1012.50 1012.48 1012.33 1012.23 1013.23 1014.03 1014.41 1015.01 1015.52 1015.89 1016.63 1016.77 1016.68 1016.59
994.86 994.60 994.27 993.71 994.03 995.83 997.29 997.61 997.14 997.55 997.73 998.00 998.47 999.14 999.81 1000.27 1000.67 1001.38 1001.78 1002.77 1003.46 1004.24 1005.42 1006.55 1007.70 1008.80 1009.80 1010.66 1011.38 1011.73 1012.03 1012.32 1012.09 1012.09 1012.15 1012.00 1012.58 1012.34 1012.39 1012.96 1013.67 1014.02 1014.38 1015.16 1015.76 1015.90 1016.45 1016.52 1016.27
995.70 995.61 994.46 994.34 994.62 994.90 997.21 998.61 997.89 997.48 997.18 997.83 998.61 999.76 1000.45 1000.82 1001.12 1001.48 1001.62 1001.86 1002.87 1003.61 1004.73 1006.29 1007.41 1008.43 1009.33 1009.92 1010.54 1011.00 1011.28 1011.61 1011.80 1011.99 1012.02 1011.87 1011.90 1012.03 1012.24 1012.71 1013.33 1013.85 1014.14 1014.76 1015.21 1015.39 1016.03 1016.24 1016.19
995.53 995.08 994.90 994.48 994.56 994.68 995.59 998.54 1000.83 998.48 997.84 997.52 998.59 999.72 1000.17 1001.36 1001.90 1002.41 1002.79 1003.20 1003.68 1003.91 1004.52 1005.71 1007.07 1008.15 1008.90 1009.39 1009.58 1009.82 1010.30 1010.50 1010.79 1011.02 1011.28 1011.60 1011.77 1012.00 1011.95 1012.39 1013.04 1013.51 1013.79 1014.23 1014.71 1014.97 1015.16 1015.51 1015.60
996.36 995.64 995.15 994.36 994.95 995.35 995.57 998.23 1001.18 1001.24 997.55 998.18 998.61 999.95 1000.93 1001.88 1002.54 1003.10 1003.62 1004.07 1004.47 1004.84 1005.33 1005.84 1006.71 1007.48 1008.01 1008.28 1008.83 1009.27 1009.78 1009.74 1009.45 1009.89 1010.32 1010.68 1010.99 1011.33 1011.63 1011.87 1012.32 1012.66 1012.99 1013.39 1013.89 1014.28 1014.22 1014.62 1014.82
Wind_Speed
11 10 7 4 5 9 1 5 12 11 9 9 7 4 18 17 9 8 18 15 20 19 16 13 12 14 14 15 13 11 10 9 8 8 8 7 7 7 7 7 10 12 12 14 14 14 14 14 15
6 6 4 5 4 1 7 10 13 9 9 14 10 7 14 18 15 18 12 20 20 18 16 15 10 12 13 13 12 10 9 8 7 6 7 7 8 8 9 9 10 14 14 14 14 14 14 15 15
12 7 5 5 2 7 2 9 14 11 8 9 6 13 7 4 11 13 15 22 18 18 17 16 12 12 12 12 12 9 9 7 7 8 6 4 6 11 11 11 12 13 14 15 14 15 15 14 14
4 4 7 1 7 14 11 11 13 10 4 2 10 11 9 4 5 9 19 19 19 17 20 16 13 12 11 10 11 9 8 7 9 9 8 8 11 14 14 13 14 14 14 14 14 15 15 14 14
4 7 7 9 11 14 12 12 12 11 11 11 12 11 9 5 5 18 20 17 19 17 20 15 12 11 9 11 10 9 8 7 8 9 11 12 14 15 15 13 13 13 14 13 14 14 13 14 13
6 4 4 10 13 11 11 11 7 7 9 11 13 12 6 1 10 10 14 14 15 17 18 16 13 10 9 11 10 9 8 9 9 9 11 11 14 14 14 14 12 14 13 13 13 13 12 12 12
10 6 0 10 11 10 8 10 4 9 7 11 9 7 11 15 13 8 5 6 13 17 17 15 14 10 10 9 9 8 7 7 9 9 9 10 12 13 13 12 13 13 13 13 12 11 10 10 11
9 8 16 9 10 10 7 4 7 6 9 10 9 6 13 21 21 18 10 6 7 15 15 15 15 12 12 11 8 7 6 5 8 9 8 9 11 11 13 13 12 12 12 11 11 10 10 14 12
3 3 2 11 11 10 8 6 7 6 8 4 3 2 24 27 27 21 15 5 10 8 14 14 17 7 6 10 10 8 6 5 7 8 6 9 5 11 13 10 12 11 10 10 9 8 9 15 17
10 6 17 13 13 9 8 7 9 7 9 6 6 18 27 27 26 26 22 18 14 10 12 13 17 11 10 9 8 4 7 8 7 3 4 7 5 4 5 13 10 10 9 9 7 7 9 13 6
4 7 6 8 9 6 4 3 8 10 4 5 11 19 25 26 22 22 22 19 15 17 12 10 13 11 10 6 7 6 4 6 6 4 6 4 4 5 7 5 3 7 10 8 9 8 5 5 11
6 4 6 5 7 0 3 6 2 10 10 3 17 21 22 27 23 23 22 18 19 16 13 14 15 13 4 3 4 3 2 0 3 4 6 2 2 4 8 4 4 4 3 7 4 3 4 5 1
6 6 3 4 2 7 2 3 9 7 4 4 14 19 23 23 23 21 15 21 14 11 19 17 11 6 3 4 4 3 3 3 4 6 10 6 1 1 4 6 2 3 8 3 4 2 3 4 10
5 2 2 6 5 3 4 8 6 6 7 10 13 17 19 19 21 19 16 13 13 8 11 13 11 9 9 5 6 4 3 4 3 2 5 5 3 3 4 4 4 4 4 7 3 4 2 6 2
1 5 8 7 7 8 9 8 10 8 9 12 13 15 14 17 19 20 19 17 16 9 5 10 13 15 7 4 6 5 4 6 2 4 4 4 3 5 4 4 4 5 5 7 3 4 4 4 7
10 11 8 6 8 6 13 10 9 8 9 10 16 13 13 13 16 17 18 17 12 11 7 13 11 9 12 7 6 9 7 1 4 4 4 7 6 7 9 4 2 3 7 6 6 7 4 2 3
5 8 8 12 8 8 10 11 10 10 10 11 9 12 14 12 16 15 12 9 12 11 9 11 7 11 7 13 10 7 4 2 3 4 3 5 7 7 8 8 5 5 5 6 3 5 5 3 3
6 6 4 8 10 7 5 12 13 11 12 12 13 13 14 16 17 17 20 17 15 13 14 15 11 8 13 9 7 7 6 6 7 5 4 8 4 5 6 7 9 7 7 8 5 5 9 3 3
6 7 6 9 6 6 7 13 12 12 12 14 14 14 17 18 19 19 18 21 22 20 20 18 11 11 4 7 7 7 7 7 7 5 7 2 6 5 6 7 8 9 8 3 6 6 8 6 3
8 8 11 11 9 3 2 14 14 14 13 14 15 16 17 18 18 18 22 23 23 24 20 14 13 9 10 9 7 7 6 7 6 6 4 6 6 5 6 6 6 6 5 5 9 9 5 7 3
12 7 10 9 5 12 15 8 10 15 13 13 14 15 17 17 19 19 19 21 21 23 19 20 17 14 12 12 8 7 6 4 4 6 6 8 9 8 5 7 6 7 3 6 9 9 10 6 3
10 6 6 8 12 8 15 7 16 15 13 13 15 16 18 19 19 19 21 21 24 21 19 19 16 15 13 13 10 10 8 9 10 8 8 5 8 8 8 8 9 8 6 4 7 7 7 6 5
10 5 10 10 14 7 13 9 14 19 18 18 17 18 18 20 20 22 21 21 22 21 20 19 17 15 14 13 12 9 10 8 8 5 4 6 6 9 10 10 10 9 8 8 6 5 9 6 6
8 14 15 13 13 11 5 15 12 18 16 18 18 17 17 20 19 18 20 21 20 21 21 20 18 15 14 14 15 14 11 12 8 7 6 7 9 9 11 10 8 8 7 6 5 4 7 7 6
11 19 7 7 6 5 5 13 4 12 20 18 19 17 18 16 18 17 19 20 21 22 21 19 18 16 15 16 15 16 15 13 12 10 9 8 6 6 9 10 8 8 4 5 7 8 6 8 8
11 14 4 6 4 4 1 12 4 16 9 18 15 15 14 14 15 18 19 19 20 21 21 19 16 17 17 16 16 14 14 11 12 12 11 7 9 8 7 10 10 10 8 7 6 6 5 8 9
5 8 12 13 10 9 5 12 16 15 16 15 13 11 10 9 10 10 15 18 19 19 19 17 15 16 16 17 13 14 13 14 12 10 9 9 10 10 6 7 9 10 10 8 10 8 8 4 9
13 10 8 6 4 6 9 16 12 6 18 16 18 15 11 9 8 6 1 10 11 14 16 16 14 13 14 17 16 14 15 14 13 12 12 11 9 8 6 8 9 9 9 10 10 9 10 8 8
7 11 9 9 8 10 5 6 3 20 16 18 17 12 15 10 9 7 7 7 5 7 10 14 15 15 15 16 16 14 14 15 13 14 12 11 11 10 8 8 9 10 11 11 11 10 9 12 9
10 16 14 9 2 15 4 3 28 38 16 16 19 14 14 11 10 10 11 11 9 8 8 10 12 14 15 15 14 14 15 13 13 13 13 12 12 11 11 11 11 12 12 11 12 14 12 13 13
Wind_Direction
200 216 248 301 250 235 161 87 120 125 98 92 110 114 87 37 23 87 139 134 140 133 131 135 123 119 123 122 125 124 122 124 127 138 134 133 137 139 126 118 117 119 114 115 119 119 116 107 105
212 238 293 256 276 258 53 62 91 75 104 98 69 130 74 67 74 112 136 140 140 134 144 129 130 124 126 124 125 123 122 116 116 111 129 143 147 139 128 121 121 109 113 116 120 121 117 114 113
251 237 269 247 226 57 73 111 104 122 98 121 116 60 45 59 105 139 138 136 155 144 139 117 134 128 131 129 122 124 114 109 107 110 115 111 147 141 127 125 116 112 110 119 123 117 116 113 110
221 251 231 275 88 78 61 83 123 122 153 33 106 83 94 59 95 141 145 158 143 153 118 128 136 136 138 129 125 112 111 102 99 106 99 87 112 130 125 127 118 115 116 118 118 115 121 115 114
272 243 280 111 79 72 81 101 156 185 128 167 167 109 96 124 138 155 145 165 147 148 118 142 138 139 141 127 118 112 102 90 98 115 107 103 113 120 121 122 118 117 116 119 121 119 115 116 117
260 272 280 85 84 95 97 125 145 122 146 161 131 120 113 140 153 145 157 152 152 130 138 133 141 140 134 120 124 110 98 100 101 105 113 114 119 123 122 124 123 114 115 115 115 115 119 116 118
238 277 357 120 115 88 100 118 111 102 103 140 145 101 124 158 144 113 102 171 162 136 148 146 146 143 138 126 115 115 109 94 99 105 113 124 124 124 123 120 124 118 119 116 115 114 119 127 114
286 304 318 130 105 94 111 131 83 105 90 111 156 136 160 154 150 150 158 232 196 152 140 155 138 168 165 152 131 113 102 91 100 112 134 135 137 134 133 137 124 127 121 120 119 114 117 125 123
42 229 14 51 69 117 144 130 152 49 131 143 147 105 136 154 157 152 146 199 198 164 152 170 153 170 168 152 131 146 139 150 151 140 164 179 178 173 153 120 130 130 129 131 129 134 147 154 155
239 241 47 10 27 57 145 157 113 174 149 144 151 99 135 157 159 165 162 175 162 138 169 208 136 179 189 143 155 144 156 187 161 122 240 191 128 78 158 123 138 136 144 146 151 170 196 196 154
349 19 30 51 27 6 41 151 175 207 173 164 136 133 147 156 166 169 170 167 160 179 180 210 124 183 207 116 180 168 199 148 143 143 227 327 55 177 106 119 166 153 185 179 183 184 288 351 152
181 29 22 39 59 27 305 54 17 16 27 123 137 147 157 163 175 171 170 169 181 175 173 217 150 201 164 126 211 172 155 261 150 154 92 326 162 234 115 159 158 202 260 199 162 125 209 300 250
1 71 194 129 358 17 90 80 65 48 2 151 127 152 163 171 165 171 158 174 176 184 182 198 159 166 165 182 185 131 294 225 180 176 150 207 71 161 93 89 134 99 278 211 160 236 155 198 94
0 3 17 150 161 117 131 115 222 83 85 108 149 158 164 166 164 149 175 199 150 216 194 154 164 167 207 181 253 244 233 250 229 236 131 190 54 12 115 120 152 188 262 297 147 198 192 75 231
5 224 141 157 159 140 130 146 85 99 125 137 143 144 162 169 165 160 181 186 177 195 204 181 196 175 168 241 215 234 253 211 113 256 175 211 179 182 169 139 204 163 225 238 242 196 255 240 170
226 227 125 105 153 137 221 107 121 134 135 134 142 143 161 163 179 172 175 195 137 164 204 238 203 168 169 190 222 248 227 119 323 186 159 182 200 173 129 169 165 331 238 237 124 232 197 244 224
19 44 64 133 202 147 241 120 147 147 134 143 155 155 166 174 189 156 166 174 163 178 204 215 222 190 213 190 211 225 227 224 235 274 209 160 199 197 150 164 168 207 278 279 204 196 283 238 182
353 34 36 86 133 220 172 111 156 164 146 155 162 176 175 193 197 178 180 178 185 183 195 215 195 209 201 206 205 219 229 230 191 209 254 184 206 201 155 165 168 194 234 237 289 164 228 225 190
314 319 112 78 109 235 173 136 158 171 160 156 166 176 186 190 185 184 191 177 192 195 197 198 193 226 194 207 205 215 223 221 243 238 196 225 194 204 193 197 175 190 200 222 291 203 224 225 167
283 278 92 131 143 203 228 136 160 178 179 168 171 179 182 179 168 174 181 187 190 191 191 184 206 207 198 203 211 222 217 232 226 247 229 216 232 214 196 206 171 202 170 144 216 225 192 234 305
293 22 7 331 204 214 156 119 166 177 186 172 178 180 180 180 168 173 186 184 190 195 193 190 195 206 206 228 201 204 248 266 260 236 231 222 235 210 206 205 217 187 150 166 247 214 205 213 245
309 12 290 273 272 205 230 131 203 185 188 188 187 188 183 186 184 180 184 190 191 194 199 202 200 205 209 210 243 211 220 206 215 218 218 217 214 230 203 215 220 211 172 216 233 206 203 211 200
308 320 277 284 257 200 196 120 156 169 180 190 200 191 191 187 193 187 189 194 200 201 201 206 206 206 214 201 226 223 223 229 238 228 209 205 227 215 227 212 218 206 209 187 220 221 212 193 196
298 262 238 219 243 229 141 117 289 172 170 184 194 193 197 189 196 201 191 198 203 207 208 207 207 201 205 221 205 231 236 229 253 217 229 218 215 210 215 223 216 227 213 197 170 207 235 207 261
226 244 259 251 200 157 264 49 231 110 141 180 183 193 191 195 184 203 207 202 204 211 211 211 202 196 202 210 219 213 226 234 242 248 242 252 249 228 173 195 216 218 205 195 169 191 233 205 210
322 315 285 181 339 325 54 128 288 121 106 148 160 172 174 188 193 191 205 215 211 208 210 207 201 186 201 212 216 218 220 228 232 233 251 253 243 262 206 172 211 207 203 203 184 192 204 210 212
294 261 357 308 186 103 352 153 139 146 146 132 115 115 131 174 178 187 201 203 218 207 206 206 199 184 190 205 216 223 223 231 250 254 256 232 241 263 259 184 207 224 194 185 195 207 206 263 219
276 351 263 262 193 279 166 227 147 139 150 138 119 117 125 132 102 84 328 185 199 213 197 192 199 201 200 213 213 222 226 226 234 241 245 259 267 243 248 190 208 220 206 204 203 205 202 219 234
312 235 231 310 330 315 269 54 149 179 171 128 126 130 125 131 116 109 98 96 137 192 182 186 187 201 211 216 225 223 228 226 224 233 237 235 235 244 225 205 208 212 215 205 207 220 214 216 220
270 282 302 272 42 291 335 200 129 281 125 143 116 123 112 112 113 121 116 119 122 123 150 175 186 200 210 217 215 219 225 237 236 218 234 233 225 218 228 204 207 212 210 208 207 215 215 216 225